Date String (YYYY-MM-DD hh:mm:ss) UTC,Instrument flags,absolute air pressure of the measurement (hPa),sample flow rate (lpm),inlet stack bypass flow (lpm),air temperature of the measurement (°C),ambient temperature measured by the external sensor (°C),aerosol sample conditioner tube jacket temperature (°C),OPC LED temperature (°C),internal box temperature (°C),relative humidity of the measurement (%),span deviation,mass concentration of particles derived from Lorenz-Mie calculation of OPC scattering (μg/m³),mass concentration of particles derived from Lorenz-Mie calculation of OPC scattering (μg/m³),mass concentration of particles derived from Lorenz-Mie calculation of OPC scattering (μg/m³)
DateTimeUTC,F1_M11,P_M11,Q1_M11,Q2_M11,T1_M11,T2_M11,T3_M11,T4_M11,T5_M11,U1_M11,ZSPAN_M11,X0_M11,X2_M11,X1_M11
2023-10-11 05:00:00,SystemResetWarning,0819.2,5.01,000.00,028.3,026.5,000.0,036.9,030.0,11.6,0000.0,0006.54,0003.48,0003.20
2023-10-11 05:01:00,SystemResetWarning,0819.2,5.00,000.00,028.3,026.6,000.0,036.9,030.1,11.6,0000.0,0006.68,0003.47,0003.20
2023-10-11 05:02:00,SystemResetWarning,0819.2,4.99,000.00,028.3,026.7,000.0,036.9,030.1,11.6,0000.0,0005.94,0003.46,0003.19
2023-10-11 05:03:00,SystemResetWarning,0819.2,4.99,000.00,028.3,026.8,000.0,036.9,030.1,11.6,0000.0,0005.51,0003.43,0003.18
2023-10-11 05:04:00,SystemResetWarning,0819.2,5.00,000.00,028.4,026.9,000.0,036.9,030.1,11.6,0000.0,0005.32,0003.40,0003.18
2023-10-11 05:05:00,SystemResetWarning,0819.2,5.00,000.00,028.4,027.0,000.0,036.9,030.1,11.6,0000.0,0005.53,0003.43,0003.18
2023-10-11 05:06:00,SystemResetWarning,0819.1,5.01,000.00,028.4,027.1,000.0,036.9,030.1,11.6,0000.0,0005.46,0003.42,0003.18
2023-10-11 05:07:00,SystemResetWarning,0819.1,5.01,000.00,028.4,027.1,000.0,036.9,030.2,11.6,0000.0,0005.46,0003.41,0003.19
2023-10-11 05:08:00,SystemResetWarning,0819.1,5.01,000.00,028.5,027.2,000.0,036.9,030.2,11.5,0000.0,0006.87,0003.45,0003.19
2023-10-11 05:09:00,SystemResetWarning,0819.2,5.00,000.00,028.5,027.2,000.0,036.9,030.2,11.5,0000.0,0007.53,0003.47,0003.20
2023-10-11 05:10:00,SystemResetWarning,0819.1,5.00,000.00,028.5,027.2,000.0,036.9,030.2,11.5,0000.0,0007.87,0003.49,0003.20
2023-10-11 05:11:00,SystemResetWarning,0819.1,4.99,000.00,028.5,027.3,000.0,037.0,030.2,11.4,0000.0,0007.82,0003.49,0003.20
2023-10-11 05:12:00,SystemResetWarning,0819.0,5.00,000.00,028.5,027.3,000.0,037.0,030.3,11.4,0000.0,0007.72,0003.49,0003.21
2023-10-11 05:13:00,SystemResetWarning,0819.1,5.00,000.00,028.6,027.3,000.0,037.0,030.3,11.4,0000.0,0007.63,0003.49,0003.21
2023-10-11 05:14:00,SystemResetWarning,0819.0,5.00,000.00,028.6,027.3,000.0,037.0,030.3,11.3,0000.0,0007.94,0003.50,0003.22
2023-10-11 05:15:00,SystemResetWarning,0819.0,5.00,000.00,028.6,027.3,000.0,037.0,030.3,11.3,0000.0,0008.22,0003.52,0003.23
2023-10-11 05:16:00,SystemResetWarning,0819.0,5.00,000.00,028.6,027.4,000.0,037.0,030.3,11.3,0000.0,0008.12,0003.50,0003.23
2023-10-11 05:17:00,SystemResetWarning,0819.0,5.00,000.00,028.7,027.4,000.0,037.1,030.4,11.3,0000.0,0008.30,0003.50,0003.23
2023-10-11 05:18:00,SystemResetWarning,0819.0,5.00,000.00,028.7,027.4,000.0,037.1,030.4,11.3,0000.0,0008.38,0003.51,0003.23
2023-10-11 05:19:00,SystemResetWarning,0819.0,5.01,000.00,028.7,027.4,000.0,037.1,030.4,11.3,0000.0,0007.82,0003.51,0003.23
2023-10-11 05:20:00,SystemResetWarning,0819.0,5.00,000.00,028.7,027.5,000.0,037.1,030.4,11.3,0000.0,0007.05,0003.50,0003.23
2023-10-11 05:21:00,SystemResetWarning,0819.0,5.00,000.00,028.7,027.4,000.0,037.1,030.4,11.3,0000.0,0006.95,0003.47,0003.24
2023-10-11 05:22:00,SystemResetWarning,0818.9,4.97,000.00,028.7,026.1,000.0,037.1,030.3,11.3,0000.0,0007.21,0003.50,0003.25
2023-10-11 05:23:00,SystemResetWarning,0818.9,5.02,000.00,028.6,024.5,000.0,037.0,030.1,11.4,0000.0,0007.35,0003.51,0003.25
2023-10-11 05:24:00,SystemResetWarning,0819.4,5.01,000.00,028.5,024.3,000.0,037.0,030.0,11.4,0000.0,0007.34,0003.51,0003.24
2023-10-11 05:25:00,SystemResetWarning,0819.3,4.99,000.00,028.4,024.6,000.0,037.0,029.8,11.5,0000.0,0006.77,0003.53,0003.22
2023-10-11 05:26:00,SystemResetWarning,0819.4,5.00,000.00,028.3,024.9,000.0,037.0,029.8,11.6,0000.0,0006.28,0003.50,0003.21
2023-10-11 05:27:00,SystemResetWarning,0819.3,5.01,000.00,028.3,025.3,000.0,036.9,029.8,11.6,0000.0,0006.30,0003.51,0003.22
2023-10-11 05:28:00,SystemResetWarning,0819.5,4.99,000.00,028.3,025.6,000.0,036.9,029.9,11.7,0000.0,0006.18,0003.52,0003.22
2023-10-11 05:29:00,SystemResetWarning,0819.3,4.99,000.00,028.2,025.9,000.0,036.9,029.9,11.7,0000.0,0006.11,0003.51,0003.22
2023-10-11 05:30:00,SystemResetWarning,0819.4,5.00,000.00,028.2,026.1,000.0,036.9,029.9,11.7,0000.0,0006.34,0003.51,0003.21
2023-10-11 05:31:00,SystemResetWarning,0819.4,5.01,000.00,028.2,026.3,000.0,036.9,029.9,11.7,0000.0,0006.57,0003.51,0003.21
2023-10-11 05:32:00,SystemResetWarning,0819.3,5.01,000.00,028.3,026.5,000.0,036.9,030.0,11.7,0000.0,0006.16,0003.51,0003.20
2023-10-11 05:33:00,SystemResetWarning,0819.3,4.99,000.00,028.3,026.6,000.0,036.9,030.0,11.7,0000.0,0005.59,0003.48,0003.20
2023-10-11 05:34:00,SystemResetWarning,0818.8,5.00,000.00,028.3,026.7,000.0,036.9,030.0,11.7,0000.0,0005.56,0003.46,0003.20
2023-10-11 05:35:00,SystemResetWarning,0818.9,5.00,000.00,028.3,026.8,000.0,036.9,030.1,11.7,0000.0,0005.58,0003.44,0003.20
2023-10-11 05:36:00,SystemResetWarning,0818.9,5.00,000.00,028.3,026.9,000.0,036.9,030.1,11.6,0000.0,0005.44,0003.40,0003.20
2023-10-11 05:37:00,SystemResetWarning,0818.8,5.00,000.00,028.3,026.9,000.0,036.9,030.1,11.6,0000.0,0005.32,0003.39,0003.21
2023-10-11 05:38:00,SystemResetWarning,0818.8,5.00,000.00,028.4,027.0,000.0,036.9,030.1,11.6,0000.0,0005.52,0003.42,0003.20
2023-10-11 05:39:00,SystemResetWarning,0818.8,5.00,000.00,028.4,027.0,000.0,036.9,030.1,11.6,0000.0,0005.38,0003.40,0003.21
2023-10-11 05:40:00,SystemResetWarning,0818.8,5.00,000.00,028.4,027.1,000.0,036.9,030.1,11.6,0000.0,0005.30,0003.40,0003.20
2023-10-11 05:41:00,SystemResetWarning,0818.8,5.00,000.00,028.4,027.1,000.0,036.9,030.2,11.6,0000.0,0005.11,0003.39,0003.19
2023-10-11 05:42:00,SystemResetWarning,0818.8,5.00,000.00,028.5,027.1,000.0,036.9,030.2,11.6,0000.0,0004.76,0003.37,0003.19
2023-10-11 05:43:00,SystemResetWarning,0818.8,5.01,000.00,028.5,027.2,000.0,036.9,030.2,11.6,0000.0,0004.64,0003.38,0003.19
2023-10-11 05:44:00,SystemResetWarning,0818.8,4.99,000.00,028.5,027.2,000.0,036.9,030.2,11.6,0000.0,0004.71,0003.39,0003.19
2023-10-11 05:45:00,SystemResetWarning,0818.9,4.99,000.00,028.5,027.2,000.0,037.0,030.2,11.5,0000.0,0006.26,0003.39,0003.17
2023-10-11 05:46:00,SystemResetWarning,0818.8,4.99,000.00,028.5,027.2,000.0,037.0,030.2,11.5,0000.0,0006.10,0003.38,0003.17
2023-10-11 05:47:00,SystemResetWarning,0818.9,5.00,000.00,028.6,027.3,000.0,037.0,030.3,11.5,0000.0,0006.38,0003.43,0003.18
2023-10-11 05:48:00,SystemResetWarning,0818.8,5.01,000.00,028.6,027.3,000.0,037.0,030.3,11.5,0000.0,0006.53,0003.45,0003.18
2023-10-11 05:49:00,SystemResetWarning,0818.8,5.01,000.00,028.6,027.3,000.0,037.0,030.3,11.5,0000.0,0006.85,0003.43,0003.19
2023-10-11 05:50:00,SystemResetWarning,0818.9,5.00,000.00,028.6,027.3,000.0,037.0,030.3,11.5,0000.0,0006.84,0003.44,0003.19
2023-10-11 05:51:00,SystemResetWarning,0818.9,5.00,000.00,028.6,027.4,000.0,037.1,030.3,11.5,0000.0,0006.86,0003.44,0003.20
2023-10-11 05:52:00,SystemResetWarning,0818.8,5.00,000.00,028.7,027.4,000.0,037.1,030.3,11.5,0000.0,0006.85,0003.44,0003.20
2023-10-11 05:53:00,SystemResetWarning,0818.8,5.00,000.00,028.7,027.4,000.0,037.1,030.3,11.5,0000.0,0006.86,0003.44,0003.20
2023-10-11 05:54:00,SystemResetWarning,0818.8,5.00,000.00,028.7,027.4,000.0,037.1,030.4,11.5,0000.0,0006.98,0003.47,0003.21
2023-10-11 05:55:00,SystemResetWarning,0818.8,4.99,000.00,028.7,027.5,000.0,037.1,030.4,11.5,0000.0,0007.04,0003.48,0003.21
2023-10-11 05:56:00,SystemResetWarning,0818.8,5.00,000.00,028.7,027.5,000.0,037.2,030.4,11.5,0000.0,0005.66,0003.51,0003.23
2023-10-11 05:57:00,SystemResetWarning,0818.7,5.00,000.00,028.8,027.5,000.0,037.2,030.4,11.5,0000.0,0005.65,0003.52,0003.24
2023-10-11 05:58:00,SystemResetWarning,0818.7,5.01,000.00,028.8,027.5,000.0,037.2,030.4,11.5,0000.0,0005.41,0003.50,0003.24
2023-10-11 05:59:00,SystemResetWarning,0818.7,5.01,000.00,028.8,027.4,000.0,037.2,030.4,11.5,0000.0,0005.36,0003.50,0003.24
